Wind_Speed
60 61 62 57 54 55 54 50 43 51 46 45 45 47 46 47 38 48 49 42 37 31 34 32 33 29 32 30 33 37 42 43 41 45 46 48 41 44 44 48 46 44 50 57 60 59 63 67 67
64 65 63 61 59 57 58 56 56 50 51 52 48 47 50 47 43 46 50 50 50 39 35 32 36 35 35 34 40 48 44 41 40 42 45 49 47 47 54 50 46 51 57 60 63 67 67 68 66
69 62 67 62 62 62 63 63 61 54 55 53 50 49 50 50 46 48 50 54 51 45 49 42 40 43 45 47 51 49 40 46 43 43 43 46 51 53 58 49 50 56 63 60 66 68 69 67 65
74 76 78 67 63 68 70 66 65 59 57 54 54 54 53 51 50 53 54 55 48 44 36 38 41 45 47 50 42 42 51 45 44 42 49 53 58 57 53 49 54 64 68 69 69 72 68 66 66
75 83 73 75 74 76 74 70 68 64 58 61 60 58 56 58 48 53 55 53 52 56 51 43 41 41 38 44 47 50 51 46 46 50 53 59 55 55 55 52 60 71 72 73 72 70 69 68 67
85 84 70 71 78 77 79 71 66 61 58 66 65 62 59 57 55 55 55 55 59 60 54 47 47 47 45 46 47 48 43 50 52 52 56 58 62 64 56 56 71 74 72 74 72 72 72 70 67
86 89 82 78 73 73 86 81 72 62 63 69 68 67 64 58 62 56 59 60 58 58 58 57 57 53 51 51 51 53 58 52 52 53 59 59 60 66 60 67 73 70 73 76 76 75 74 70 68
88 91 89 85 82 69 75 78 76 69 62 71 71 73 71 66 62 65 67 62 58 55 54 56 58 56 53 53 51 51 47 52 54 59 59 58 62 67 62 70 72 75 74 79 81 76 73 70 70
87 89 86 89 86 90 91 85 81 72 69 76 79 67 71 71 63 70 69 66 64 59 56 56 58 58 59 55 53 58 56 58 58 65 66 62 66 66 67 71 76 77 79 84 81 76 74 73 69
94 86 80 89 90 93 98 90 90 83 79 79 81 71 68 73 75 73 69 66 68 63 61 62 62 63 61 60 59 61 65 63 65 68 71 70 64 67 66 74 79 77 79 85 81 77 75 71 63
97 94 89 87 89 94 98 96 93 90 87 84 73 75 73 81 78 76 69 69 75 72 64 64 63 64 64 64 65 65 62 65 67 73 71 63 62 69 70 77 79 78 84 83 80 79 73 66 60
106 98 105 104 104 102 98 96 95 95 92 93 87 86 77 78 71 73 71 73 76 70 65 65 55 58 63 68 62 57 63 69 73 74 61 65 63 70 77 75 77 80 81 80 77 77 70 64 61
96 106 101 105 112 104 99 97 97 96 83 89 86 89 84 80 75 73 76 71 73 64 59 57 60 64 67 60 64 65 66 69 69 65 66 63 67 76 72 76 79 82 78 78 79 71 65 63 61
115 98 109 105 109 108 106 103 101 94 89 88 92 90 88 83 82 75 75 75 77 74 76 79 74 73 74 73 74 71 71 73 67 68 67 69 73 70 72 78 81 84 79 76 77 68 63 59 58
123 118 106 103 104 106 105 108 107 95 98 90 88 92 94 95 88 83 82 81 77 80 79 79 77 76 76 74 75 73 69 66 71 69 68 67 65 67 74 77 85 83 81 75 69 63 62 60 53
122 125 114 108 105 102 109 98 100 99 102 100 103 101 95 97 94 91 91 91 88 85 83 78 75 74 77 73 68 66 72 73 77 76 63 61 69 70 75 80 85 82 79 75 66 63 59 55 51
114 115 123 121 124 119 125 107 94 95 95 98 97 97 99 98 92 90 91 90 87 82 85 84 84 79 75 75 73 71 75 76 75 60 62 67 68 71 79 81 85 77 78 69 65 64 58 55 50
112 116 116 111 115 128 135 127 108 105 101 103 107 106 103 105 98 94 89 87 85 83 80 76 81 83 75 69 69 74 76 69 59 61 61 69 73 75 81 82 83 76 73 66 63 60 57 53 51
112 115 113 112 113 125 127 124 118 121 126 113 104 98 99 104 103 95 95 96 94 93 89 86 90 83 83 75 75 71 60 55 59 60 66 69 74 73 81 83 71 75 68 64 62 57 54 51 51
115 117 114 113 116 123 127 124 116 113 117 121 117 109 104 97 93 97 100 94 90 89 85 75 66 65 60 64 63 59 57 60 59 65 70 74 76 77 80 74 70 71 64 62 59 54 52 51 45
117 119 117 119 121 126 120 122 118 110 114 117 122 122 116 110 108 97 88 88 79 70 60 65 68 63 58 55 49 52 58 60 64 73 75 80 77 78 73 67 70 66 62 59 55 54 51 52 43
107 114 121 123 125 124 124 122 119 111 110 113 114 114 114 116 115 102 97 84 78 68 72 65 63 55 58 57 64 71 76 79 77 76 79 82 75 72 65 66 67 61 58 55 54 53 50 49 39
108 109 117 122 127 125 124 124 113 111 109 110 110 110 110 111 111 115 111 102 98 89 91 91 85 72 73 74 78 79 78 78 80 83 82 75 71 63 63 66 62 58 55 52 52 51 51 46 41
104 105 111 116 118 123 113 124 110 110 106 110 108 109 111 110 110 106 103 104 108 99 86 83 85 83 85 86 83 86 81 81 80 82 80 70 63 61 64 63 57 57 53 51 51 51 51 42 45
95 98 102 104 109 104 101 118 98 108 108 110 111 111 111 108 107 108 101 95 94 94 100 99 91 86 86 83 82 88 84 82 78 81 66 57 57 58 63 56 54 53 49 52 51 50 45 41 48
85 85 87 92 97 92 91 104 86 93 102 109 112 114 114 110 106 105 97 92 90 86 79 78 77 74 77 79 77 77 79 79 69 56 50 52 55 60 56 51 52 48 49 50 50 47 42 43 43
75 76 79 78 83 85 90 91 80 80 91 100 104 112 113 108 97 92 89 87 89 81 80 76 76 73 73 70 69 65 60 59 53 45 46 50 55 60 49 49 49 46 49 48 49 45 42 40 25
59 61 62 65 68 73 77 76 70 71 82 93 102 104 102 98 91 92 94 84 76 80 76 72 70 69 68 66 60 58 56 48 44 42 48 52 55 50 48 48 46 45 49 48 46 42 38 24 3
44 47 50 54 57 57 59 61 66 66 75 83 91 97 93 84 94 96 91 80 77 74 68 64 62 60 60 56 53 48 43 41 40 44 51 53 47 45 46 43 41 45 46 47 41 39 25 5 7
39 41 43 47 46 46 43 45 56 57 64 69 80 90 89 81 83 90 82 77 78 72 64 58 55 54 50 47 43 39 37 39 42 47 50 46 42 43 41 40 39 43 45 42 36 26 12 9 9
Wind_Direction
249 246 249 251 254 254 255 253 250 246 254 255 262 263 268 269 273 282 271 270 275 281 270 277 299 293 279 286 288 296 303 307 304 304 306 309 304 313 315 313 304 305 307 314 313 308 311 311 312
245 247 246 252 251 251 253 252 257 249 246 257 264 260 262 269 272 275 276 276 273 276 277 287 285 286 284 288 293 296 296 301 304 306 307 309 308 314 318 311 304 313 318 318 314 312 312 312 314
236 235 247 250 253 247 246 252 254 254 245 258 258 257 263 260 270 273 274 276 278 280 278 284 284 280 287 291 291 291 293 299 308 311 313 319 318 307 310 304 303 317 322 317 315 316 313 314 312
240 240 240 238 240 243 247 251 253 254 257 255 259 250 260 255 267 270 273 272 272 275 278 282 282 279 280 285 288 285 292 297 304 306 307 314 318 316 313 299 304 317 320 317 318 315 315 313 313
237 239 242 240 242 244 248 250 251 254 258 252 257 257 256 254 266 266 267 270 273 279 280 284 286 285 279 283 286 290 292 293 302 307 304 308 316 315 311 297 309 318 317 317 316 318 316 315 314
237 243 239 240 237 242 245 246 246 250 255 253 253 256 256 260 262 267 263 266 268 271 275 274 276 281 278 287 291 296 292 302 303 305 307 311 313 315 305 303 316 317 317 318 319 318 317 316 313
238 238 235 244 245 248 247 248 245 247 250 256 254 252 257 264 262 263 262 265 264 267 273 275 276 286 292 298 291 288 292 302 303 302 306 307 310 310 306 311 314 317 317 318 322 320 317 317 315
236 242 238 238 242 242 248 247 246 244 250 249 248 253 260 258 266 262 257 262 264 266 271 276 279 286 291 292 289 291 296 303 303 303 306 310 308 309 304 312 316 317 318 321 323 320 318 317 315
236 240 240 240 243 242 244 245 243 247 246 246 253 256 259 259 260 258 261 266 260 266 271 277 280 284 286 286 287 291 293 300 304 306 303 310 313 307 309 316 317 319 317 324 320 319 317 315 314
234 234 232 237 237 240 244 245 245 242 244 246 252 255 257 258 258 261 257 259 264 266 273 277 275 277 280 287 288 291 292 292 297 304 303 302 312 313 311 315 318 318 318 321 319 318 316 315 312
235 234 230 234 241 238 240 245 246 248 248 250 250 254 251 256 262 257 259 262 264 264 271 274 274 277 279 285 285 289 288 290 296 298 304 307 310 314 311 314 318 317 316 318 318 317 316 314 313
238 236 237 238 240 243 242 244 250 249 249 252 250 249 246 248 258 254 256 260 264 262 265 264 267 275 278 282 283 287 291 295 294 298 302 307 308 313 310 314 319 316 317 317 317 317 316 315 315
239 240 237 240 244 243 245 247 247 249 249 251 248 246 242 247 250 250 249 253 257 258 262 260 268 281 280 273 285 289 292 295 295 298 305 307 308 310 310 315 319 319 317 317 317 317 316 316 315
235 233 240 240 243 242 244 245 245 248 247 246 245 247 250 243 246 251 254 255 255 258 264 266 270 275 276 276 279 283 290 293 294 300 304 303 305 306 309 315 317 319 315 316 316 318 316 315 315
239 240 235 240 243 246 247 246 246 247 249 246 246 247 247 246 243 246 253 252 252 256 263 266 265 273 277 275 276 282 291 295 299 298 296 296 300 304 310 317 317 318 315 315 315 316 315 317 315
237 239 236 239 236 234 237 237 239 243 245 247 248 249 248 244 240 248 252 253 254 260 264 265 266 273 278 282 281 286 291 294 295 295 296 301 300 306 313 317 318 316 315 316 317 315 316 317 319
239 238 238 238 241 239 241 236 235 236 239 242 244 245 248 249 248 253 251 253 255 259 266 266 272 270 276 282 283 286 288 291 293 293 298 299 306 315 313 315 317 314 314 316 317 316 317 320 322
241 241 240 238 239 241 244 239 233 236 238 243 246 245 247 248 251 249 250 252 255 257 262 266 270 271 274 276 279 282 287 285 284 293 293 306 311 313 312 314 314 311 315 316 316 316 318 321 323
244 244 241 240 239 243 242 242 238 238 244 242 242 244 246 247 246 250 255 257 258 258 261 265 269 274 272 275 282 284 274 274 287 289 300 309 310 313 311 312 310 311 315 315 314 317 319 321 322
246 246 244 242 240 242 243 243 239 237 240 243 243 241 241 244 248 250 255 256 259 260 264 265 270 274 280 278 275 273 273 279 284 290 304 310 309 311 311 310 311 314 313 313 314 316 320 321 321
249 247 245 245 243 244 243 244 244 239 240 240 242 244 243 247 249 247 244 249 252 253 254 262 264 269 272 265 270 270 273 278 287 298 307 307 305 308 307 306 313 312 313 312 314 317 319 323 321
249 250 249 246 245 245 245 243 243 241 240 241 242 244 246 246 245 247 246 242 243 241 248 254 255 258 258 261 270 278 282 285 290 299 301 302 302 305 305 308 311 309 313 311 315 317 318 322 318
251 250 249 248 249 246 245 247 243 243 241 242 243 245 245 245 245 245 243 246 248 251 249 255 260 259 263 263 273 278 281 285 290 291 295 298 303 299 308 311 309 310 310 310 315 316 320 318 313
255 254 253 252 250 248 248 248 244 244 242 242 242 242 244 244 247 244 245 246 247 248 250 253 257 261 265 268 271 274 279 281 283 287 292 296 296 298 309 309 308 309 310 312 314 317 320 316 312
258 256 254 254 254 253 248 249 243 243 241 241 239 240 240 240 243 245 245 245 249 252 251 254 259 260 261 264 269 271 273 276 280 287 290 293 295 301 308 305 308 307 312 314 315 319 318 312 309
258 256 254 252 252 252 248 248 242 237 238 239 238 237 239 239 240 244 246 247 248 249 252 254 254 253 257 263 265 269 272 277 281 287 289 293 297 303 304 305 305 308 312 315 316 319 313 310 312
255 254 253 252 251 249 248 249 244 236 237 236 238 237 235 238 239 244 244 245 247 249 250 252 255 255 258 261 267 271 273 279 282 286 290 294 298 302 300 303 301 308 314 316 317 318 316 312 309
253 255 252 251 248 246 245 246 244 236 232 232 234 237 236 235 237 238 239 240 244 246 248 250 253 256 259 263 264 268 274 275 280 288 290 292 296 296 300 298 302 311 317 317 320 320 320 309 306
254 249 247 246 244 243 239 239 239 234 229 229 233 235 234 229 231 234 237 237 237 241 245 246 249 252 256 258 264 266 268 273 282 287 290 291 294 294 297 298 305 312 316 318 321 325 325 273 274
251 249 244 243 240 237 233 232 231 226 224 232 235 231 227 224 227 231 233 236 236 238 240 243 246 250 253 256 259 261 266 273 279 288 289 290 290 295 296 300 306 313 316 317 322 324 329 323 320
Height
10914 10919 10923 10926 10931 10934 10935 10937 10938 10942 10942 10943 10946 10944 10945 10945 10952 10955 10953 10954 10952 10954 10955 10956 10957 10956 10956 10955 10955 10954 10953 10951 10949 10948 10944 10942 10939 10937 10936 10932 10928 10925 10921 10916 10910 10903 10898 10891 10885
10904 10907 10912 10919 10924 10926 10925 10926 10930 10933 10936 10937 10939 10939 10937 10939 10947 10947 10947 10947 10946 10949 10950 10951 10952 10952 10952 10952 10950 10949 10948 10946 10944 10942 10937 10934 10932 10929 10928 10924 10920 10916 10911 10906 10899 10894 10887 10880 10873
10893 10898 10902 10911 10914 10916 10915 10915 10920 10925 10927 10930 10930 10931 10932 10933 10942 10940 10939 10938 10940 10943 10944 10946 10946 10947 10947 10946 10944 10942 10942 10939 10938 10936 10933 10929 10926 10923 10921 10916 10911 10906 10901 10896 10891 10882 10874 10868 10862
10881 10887 10891 10902 10904 10903 10902 10905 10912 10917 10920 10922 10920 10924 10924 10927 10935 10931 10935 10931 10934 10935 10937 10937 10939 10940 10940 10940 10938 10936 10935 10933 10931 10929 10926 10922 10919 10917 10912 10908 10903 10898 10892 10884 10877 10870 10862 10856 10848
10867 10874 10881 10890 10893 10892 10892 10896 10904 10909 10916 10911 10912 10914 10915 10918 10926 10925 10925 10924 10925 10926 10930 10931 10932 10932 10933 10933 10931 10929 10927 10925 10924 10922 10919 10916 10912 10908 10904 10899 10895 10889 10883 10875 10867 10858 10851 10843 10835
10854 10859 10871 10878 10878 10879 10881 10884 10893 10901 10907 10902 10904 10904 10906 10913 10919 10920 10917 10917 10918 10919 10923 10924 10925 10925 10925 10925 10923 10920 10919 10917 10916 10914 10911 10909 10905 10901 10896 10891 10886 10880 10873 10864 10856 10847 10838 10830 10823
10841 10845 10858 10863 10866 10868 10867 10865 10883 10893 10896 10895 10892 10893 10895 10909 10907 10915 10907 10906 10910 10912 10915 10917 10916 10916 10916 10916 10916 10914 10912 10910 10908 10906 10904 10901 10896 10892 10887 10883 10877 10871 10863 10852 10844 10835 10826 10818 10810
10825 10832 10845 10852 10855 10857 10852 10862 10870 10882 10892 10880 10883 10890 10889 10903 10904 10905 10897 10899 10901 10904 10907 10911 10909 10908 10908 10908 10908 10907 10904 10902 10900 10897 10897 10894 10888 10881 10878 10872 10866 10861 10851 10842 10832 10823 10814 10806 10798
10804 10822 10833 10838 10840 10841 10832 10849 10855 10864 10873 10871 10870 10879 10884 10890 10894 10888 10891 10894 10893 10895 10901 10905 10902 10901 10900 10900 10900 10899 10897 10895 10892 10889 10887 10885 10880 10872 10868 10861 10856 10848 10840 10831 10822 10813 10804 10796 10788
10794 10807 10817 10813 10819 10823 10818 10835 10841 10848 10857 10863 10863 10871 10875 10873 10878 10878 10884 10888 10883 10888 10894 10897 10893 10891 10891 10891 10890 10892 10890 10887 10885 10882 10877 10876 10871 10864 10859 10851 10845 10838 10828 10822 10812 10803 10794 10786 10778
10779 10801 10793 10797 10801 10807 10806 10819 10826 10832 10842 10849 10852 10855 10866 10859 10866 10869 10872 10874 10874 10879 10885 10888 10886 10881 10884 10885 10882 10882 10882 10880 10877 10874 10871 10865 10860 10856 10851 10842 10835 10828 10820 10812 10802 10792 10782 10775 10766
10761 10780 10779 10781 10784 10786 10797 10806 10813 10816 10830 10832 10841 10842 10854 10848 10854 10860 10862 10865 10862 10868 10874 10877 10875 10875 10876 10874 10876 10873 10873 10870 10868 10866 10861 10857 10851 10848 10843 10835 10827 10816 10809 10799 10793 10781 10771 10763 10753
10753 10756 10763 10764 10763 10777 10784 10796 10796 10804 10812 10815 10824 10828 10835 10838 10843 10847 10850 10854 10850 10857 10867 10860 10870 10863 10868 10868 10868 10868 10866 10864 10860 10859 10852 10846 10842 10839 10831 10826 10819 10811 10799 10787 10779 10775 10761 10749 10743
10720 10735 10745 10749 10752 10765 10768 10776 10766 10799 10795 10801 10809 10814 10814 10830 10832 10833 10836 10841 10844 10845 10851 10853 10863 10858 10859 10858 10860 10859 10857 10855 10853 10854 10848 10837 10835 10831 10823 10815 10807 10802 10794 10781 10768 10759 10754 10744 10736
10698 10715 10727 10740 10747 10747 10741 10746 10769 10777 10775 10785 10789 10793 10799 10806 10818 10823 10824 10828 10831 10835 10841 10847 10851 10851 10850 10850 10850 10849 10846 10843 10840 10844 10843 10832 10828 10823 10816 10805 10794 10787 10779 10774 10766 10756 10742 10734 10727
10684 10691 10709 10726 10718 10729 10698 10732 10758 10751 10757 10766 10769 10777 10783 10788 10799 10810 10812 10817 10823 10825 10830 10837 10839 10843 10839 10840 10840 10838 10834 10832 10830 10830 10829 10827 10818 10813 10805 10796 10787 10777 10768 10758 10751 10744 10737 10727 10718
10663 10675 10682 10701 10698 10698 10669 10720 10742 10733 10736 10742 10751 10760 10766 10774 10783 10795 10798 10807 10813 10816 10817 10823 10825 10832 10834 10830 10828 10828 10826 10825 10821 10820 10818 10815 10809 10799 10796 10787 10778 10769 10759 10749 10741 10731 10724 10716 10711
10638 10642 10659 10681 10681 10659 10654 10683 10725 10718 10715 10724 10735 10743 10752 10761 10770 10781 10783 10793 10799 10808 10808 10810 10813 10815 10824 10825 10821 10818 10818 10815 10813 10812 10810 10804 10798 10793 10784 10777 10768 10761 10751 10741 10732 10725 10716 10709 10702
10616 10619 10639 10656 10656 10625 10629 10659 10701 10705 10689 10708 10720 10727 10737 10743 10756 10762 10768 10777 10786 10798 10803 10799 10802 10805 10811 10812 10811 10810 10808 10808 10807 10802 10801 10796 10789 10783 10776 10769 10761 10752 10742 10733 10724 10717 10709 10702 10694
10590 10593 10611 10622 10623 10597 10611 10632 10668 10680 10684 10691 10696 10708 10718 10727 10735 10748 10756 10765 10775 10784 10791 10787 10792 10795 10800 10800 10799 10798 10797 10799 10798 10794 10790 10785 10780 10773 10767 10759 10752 10742 10735 10724 10716 10709 10702 10695 10687
10564 10564 10579 10585 10582 10572 10601 10612 10635 10663 10661 10670 10674 10687 10702 10712 10719 10732 10744 10750 10763 10774 10778 10776 10779 10784 10788 10789 10789 10786 10786 10788 10789 10784 10780 10776 10772 10765 10758 10751 10744 10735 10727 10714 10709 10701 10696 10688 10678
10532 10534 10540 10548 10550 10560 10569 10586 10603 10636 10646 10649 10661 10671 10681 10692 10699 10713 10727 10739 10747 10760 10770 10768 10769 10775 10777 10779 10779 10776 10775 10775 10778 10775 10773 10769 10764 10757 10749 10742 10736 10727 10719 10707 10700 10694 10687 10681 10674
10496 10504 10503 10512 10516 10533 10544 10553 10600 10613 10628 10636 10647 10653 10661 10667 10676 10691 10707 10716 10731 10747 10752 10757 10762 10767 10764 10767 10766 10765 10768 10765 10768 10767 10766 10762 10755 10750 10740 10733 10726 10718 10711 10704 10697 10687 10680 10673 10669
10470 10479 10476 10476 10484 10486 10541 10522 10574 10585 10605 10610 10621 10626 10634 10645 10652 10668 10686 10702 10713 10725 10738 10745 10751 10755 10751 10753 10755 10755 10759 10760 10762 10760 10757 10752 10747 10740 10732 10725 10717 10708 10702 10695 10689 10681 10672 10666 10660
10438 10445 10447 10452 10452 10477 10505 10477 10544 10554 10573 10580 10585 10596 10606 10621 10631 10645 10669 10688 10698 10709 10721 10729 10737 10743 10740 10742 10746 10744 10751 10752 10754 10750 10749 10742 10738 10731 10724 10716 10709 10701 10696 10687 10680 10673 10665 10660 10654
10410 10413 10420 10424 10429 10448 10461 10451 10513 10532 10537 10541 10556 10570 10578 10599 10620 10630 10657 10672 10683 10694 10706 10712 10718 10729 10729 10733 10736 10736 10740 10743 10743 10740 10739 10733 10727 10720 10716 10708 10701 10694 10687 10680 10673 10665 10660 10653 10646
10382 10389 10393 10402 10409 10420 10428 10441 10474 10498 10516 10524 10534 10536 10556 10580 10612 10631 10639 10655 10667 10682 10687 10697 10702 10715 10718 10723 10726 10727 10730 10731 10730 10729 10728 10725 10716 10710 10707 10700 10694 10688 10679 10672 10665 10658 10652 10644 10640
10366 10370 10378 10382 10390 10397 10413 10428 10456 10474 10485 10495 10503 10519 10542 10574 10599 10604 10613 10638 10658 10659 10672 10685 10691 10699 10705 10711 10714 10717 10720 10721 10719 10719 10717 10714 10711 10703 10698 10691 10686 10679 10672 10665 10658 10650 10642 10637 10637
10355 10356 10360 10365 10372 10383 10396 10416 10429 10451 10461 10474 10485 10504 10527 10559 10570 10581 10603 10633 10636 10644 10661 10671 10680 10687 10694 10699 10703 10707 10709 10710 10709 10709 10706 10703 10700 10695 10689 10684 10678 10673 10665 10658 10651 10643 10637 10635 10635
10341 10346 10349 10351 10363 10375 10391 10400 10408 10436 10454 10471 10479 10482 10509 10539 10556 10568 10600 10612 10620 10635 10650 10659 10670 10678 10682 10687 10693 10697 10700 10701 10700 10699 10696 10694 10691 10686 10681 10677 10671 10666 10659 10653 10646 10640 10636 10635 10634